Weather History for Valentine, NE

Change the Weather History Date:

Friday, March 28, 2014

  Actual Average Record
Temperature  
Mean Temperature 23 °F 40 °F  
Max Temperature 29 °F 53 °F 84 °F (1895)
Min Temperature 16 °F 27 °F 4 °F (1944)
Degree Days  
Heating Degree Days 42 25  
Month to date heating degree days 905 819  
Since 1 July heating degree days 6383 6055  
Cooling Degree Days 0 0  
Month to date cooling degree days 0 0  
Year to date cooling degree days 0 0  
Moisture  
Dew Point 20 °F    
Average Humidity 80    
Maximum Humidity 91    
Minimum Humidity 68    
Precipitation  
Precipitation 0.10 in 0.05 in 1.03 in (1980)
Month to date precipitation 0.49 0.93  
Year to date precipitation 1.15 1.67  
Snow  
Snow 0.80 in 0.10 in 13.80 in (1980)
Month to date snowfall 5.0 5.9  
Since 1 July snowfall 31.5 28.0  
Snow Depth 0.00 in    
Sea Level Pressure  
Sea Level Pressure 30.11 in    
Wind  
Wind Speed 7 mph (ENE)    
Max Wind Speed 15 mph    
Max Gust Speed 19 mph    
Visibility 7 miles    
Events Fog , Snow    
T = Trace of Precipitation, MM = Missing Value Source: NWS Daily Summary

Daily Weather History Graph

Daily Weather History Graph

Search for Another Location

Airport:

Trip Planner

Search our weather history database for the weather conditions in past years. The results will help you decide how hot, cold, wet, or windy it might be!

Date:

Astronomy

Mar. 28, 2014 Rise Set
Actual Time 7:31 AM CDT 8:03 PM CDT
Civil Twilight 7:02 AM CDT 8:32 PM CDT
Nautical Twilight 6:29 AM CDT 9:06 PM CDT
Astronomical Twilight 5:54 AM CDT 9:40 PM CDT
Moon 6:06 AM CDT (3/28) 6:00 PM CDT (3/28)
Length of Visible Light 13h 29m
Length of Day
12h 32m
Waning Crescent, 6% of the Moon is Illuminated
Mar 28
Waning Crescent
Mar 30
New
Apr 7
First Quarter
Apr 15
Full
Apr 22
Last Quarter

Hourly Weather History & Observations

Time (CDT) Temp. Windchill Dew Point Humidity Pressure Visibility Wind Dir Wind Speed Gust Speed Precip Events Conditions
12:52 AM 21.0 °F 12.4 °F 17.1 °F 85% 29.99 in 10.0 mi West 6.9 mph - N/A   Clear
1:52 AM 21.0 °F 11.4 °F 17.1 °F 85% 30.02 in 10.0 mi SW 8.1 mph - N/A   Clear
2:52 AM 21.0 °F - 17.1 °F 85% 30.02 in 10.0 mi Calm Calm - N/A   Clear
3:52 AM 19.0 °F 13.9 °F 15.1 °F 85% 30.03 in 10.0 mi West 3.5 mph - N/A   Clear
4:52 AM 23.0 °F 15.8 °F 19.0 °F 85% 29.99 in 10.0 mi East 5.8 mph - N/A   Overcast
5:52 AM 24.1 °F 14.4 °F 18.0 °F 77% 29.98 in 10.0 mi East 9.2 mph - N/A   Overcast
6:52 AM 25.0 °F 16.3 °F 18.0 °F 75% 30.01 in 10.0 mi East 8.1 mph - 0.00 in   Overcast
7:52 AM 24.1 °F 13.7 °F 18.0 °F 77% 30.02 in 10.0 mi East 10.4 mph - 0.00 in   Overcast
8:52 AM 24.1 °F 15.2 °F 18.0 °F 77% 30.06 in 10.0 mi East 8.1 mph - N/A   Overcast
9:52 AM 25.0 °F 14.2 °F 18.0 °F 75% 30.06 in 10.0 mi East 11.5 mph - N/A   Overcast
10:52 AM 26.1 °F 14.5 °F 18.0 °F 71% 30.08 in 10.0 mi East 13.8 mph - N/A   Overcast
11:52 AM 27.0 °F 16.1 °F 18.0 °F 69% 30.11 in 10.0 mi East 12.7 mph - N/A   Overcast
12:07 PM 26.1 °F 15.6 °F 18.0 °F 71% 30.01 in 1.8 mi East 11.5 mph - 0.01 in Snow Light Snow
12:16 PM 26.1 °F 16.2 °F 19.0 °F 75% 30.02 in 1.0 mi East 10.4 mph - 0.02 in Snow Light Snow
12:28 PM 25.0 °F 13.6 °F 19.0 °F 78% 30.02 in 0.5 mi East 12.7 mph - 0.03 in Snow Snow
12:38 PM 25.0 °F 13.1 °F 19.9 °F 81% 30.02 in 0.2 mi ENE 13.8 mph - 0.03 in Snow Heavy Snow
12:50 PM 25.0 °F 12.6 °F 21.0 °F 85% 30.13 in 0.2 mi East 15.0 mph - 0.05 in Fog , Snow Heavy Snow
1:14 PM 24.1 °F 13.1 °F 21.0 °F 88% 30.04 in 0.2 mi ENE 11.5 mph - 0.03 in Fog , Snow Snow
1:24 PM 24.1 °F 13.1 °F 19.9 °F 84% 30.04 in 1.2 mi ENE 11.5 mph - 0.04 in Snow Light Snow
1:33 PM 25.0 °F 14.2 °F 21.0 °F 85% 30.04 in 2.0 mi ENE 11.5 mph - 0.04 in Snow Light Snow
1:44 PM 26.1 °F 16.2 °F 21.0 °F 81% 30.04 in 3.0 mi ENE 10.4 mph - 0.04 in Snow Light Snow
1:52 PM 26.1 °F 16.2 °F 21.9 °F 84% 30.15 in 2.5 mi ENE 10.4 mph - 0.05 in Snow Light Snow
2:02 PM 26.1 °F 15.6 °F 21.9 °F 84% 30.05 in 3.0 mi ENE 11.5 mph - 0.00 in Snow Light Snow
2:52 PM 28.0 °F 18.6 °F 21.0 °F 75% 30.17 in 7.0 mi NE 10.4 mph - 0.00 in Snow Light Snow
3:33 PM 28.0 °F 19.3 °F 21.0 °F 75% 30.09 in 4.0 mi ENE 9.2 mph - 0.00 in Snow Light Snow
3:52 PM 28.0 °F 18.6 °F 21.0 °F 75% 30.20 in 10.0 mi NE 10.4 mph - 0.00 in   Overcast
4:52 PM 28.9 °F 21.1 °F 21.9 °F 75% 30.22 in 10.0 mi NNE 8.1 mph - N/A   Overcast
5:16 PM 28.9 °F 22.8 °F 21.9 °F 75% 30.13 in 10.0 mi Variable 5.8 mph - N/A   Overcast
5:52 PM 28.0 °F 20.0 °F 21.9 °F 78% 30.24 in 10.0 mi NNE 8.1 mph - N/A   Overcast
6:32 PM 28.0 °F 21.7 °F 21.0 °F 75% 30.16 in 10.0 mi North 5.8 mph - N/A   Overcast
6:52 PM 28.0 °F 22.8 °F 21.0 °F 75% 30.26 in 10.0 mi North 4.6 mph - N/A   Overcast
7:52 PM 27.0 °F 21.6 °F 21.0 °F 78% 30.27 in 10.0 mi NE 4.6 mph - N/A   Overcast
8:52 PM 27.0 °F - 21.0 °F 78% 30.28 in 10.0 mi Calm Calm - N/A   Overcast
9:52 PM 27.0 °F 23.0 °F 19.9 °F 75% 30.30 in 10.0 mi WNW 3.5 mph - N/A   Overcast
10:52 PM 26.1 °F - 19.9 °F 78% 30.29 in 10.0 mi Calm Calm - N/A   Overcast
10:59 PM 25.0 °F - 19.9 °F 81% 30.19 in 10.0 mi Calm Calm - N/A   Mostly Cloudy
11:08 PM 24.1 °F 19.7 °F 19.0 °F 81% 30.19 in 10.0 mi SE 3.5 mph - N/A   Scattered Clouds
11:52 PM 19.9 °F 14.9 °F 17.1 °F 89% 30.31 in 10.0 mi SSE 3.5 mph - N/A   Clear